This is the latest recevied weather packets stored in our database for station/object NC4M. If no packets are shown the sender has not sent any weather packets the latest 10 day(s).
| Time | Temp. | Humidity | Pressure | Rain* | Wind** | Luminosity | Snow |
|---|---|---|---|---|---|---|---|
| 1777905685 | 21.11° C | 56% | 1007.8 hPa | 0 mm | - | 84 W/m² | - |
| 1777905381 | 21.11° C | 50% | 1007.7 hPa | 0 mm | - | 84 W/m² | - |
| 1777905079 | 20.56° C | 57% | 1007.5 hPa | 0 mm | - | 82 W/m² | - |
| 1777904776 | 20.56° C | 58% | 1007.7 hPa | 0 mm | - | 81 W/m² | - |
| 1777904473 | 20.56° C | 55% | 1007.8 hPa | 0 mm | - | 92 W/m² | - |
| 1777904170 | 20.56° C | 52% | 1007.8 hPa | 0 mm | - | 87 W/m² | - |
| 1777903867 | 20.56° C | 54% | 1008.2 hPa | 0 mm | - | 89 W/m² | - |
| 1777903564 | 20.56° C | 56% | 1008.1 hPa | 0 mm | - | 95 W/m² | - |
| 1777903259 | 20.56° C | 56% | 1008.2 hPa | 0 mm | - | 253 W/m² | - |
| 1777902956 | 20° C | 59% | 1008.1 hPa | 0 mm | - | 312 W/m² | - |
| 1777902653 | 19.44° C | 55% | 1008 hPa | 0 mm | - | 76 W/m² | - |
| 1777902350 | 18.89° C | 59% | 1008.2 hPa | 0 mm | - | 74 W/m² | - |
| 1777902047 | 18.89° C | 60% | 1008.1 hPa | 0 mm | - | 110 W/m² | - |
| 1777901745 | 18.33° C | 58% | 1008.4 hPa | 0 mm | - | 80 W/m² | - |
| 1777901442 | 18.33° C | 60% | 1008.1 hPa | 0 mm | - | 84 W/m² | - |
| 1777901140 | 18.33° C | 60% | 1008.2 hPa | 0 mm | - | 86 W/m² | - |
| 1777900838 | 18.33° C | 60% | 1008.2 hPa | 0 mm | - | 90 W/m² | - |
| 1777900535 | 17.78° C | 63% | 1008.4 hPa | 0 mm | - | 92 W/m² | - |
| 1777900232 | 17.78° C | 64% | 1008.4 hPa | 0 mm | - | 93 W/m² | - |
| 1777899927 | 17.22° C | 64% | 1008.6 hPa | 0 mm | - | 83 W/m² | - |
| 1777899625 | 16.67° C | 64% | 1008.7 hPa | 0 mm | - | 75 W/m² | - |
| 1777899322 | 16.67° C | 65% | 1008.6 hPa | 0 mm | - | 59 W/m² | - |
| 1777899020 | 16.67° C | 65% | 1008.7 hPa | 0 mm | - | 56 W/m² | - |
| 1777898716 | 16.11° C | 65% | 1008.8 hPa | 0 mm | - | 58 W/m² | - |
| 1777898414 | 16.11° C | 64% | 1008.8 hPa | 0 mm | - | 54 W/m² | - |
* Rain latest hour (hover to see other rain measurements)
** Current wind speed in m/s (hover to see current wind gust speed)